Weather History for TJSJ - May, 2013

Change the Weather History Date:

Sunday, May 12, 2013

  Actual Average Record
Temperature  
Mean Temperature 81 °F 82 °F  
Max Temperature 86 °F 87 °F 94 °F (1998)
Min Temperature 76 °F 76 °F 70 °F (1957)
Degree Days  
Heating Degree Days 0 0  
Month to date heating degree days 0 0  
Since 1 July heating degree days 0 0  
Cooling Degree Days 16 17  
Month to date cooling degree days 200 195  
Year to date cooling degree days 1935 1836  
Growing Degree Days 30 (Base 50)    
Moisture  
Dew Point 72 °F    
Average Humidity 77    
Maximum Humidity 88    
Minimum Humidity 65    
Precipitation  
Precipitation T in 0.20 in 1.66 in (1932)
Month to date precipitation 6.26 2.31  
Year to date precipitation 16.25 15.09  
Sea Level Pressure  
Sea Level Pressure 29.97 in    
Wind  
Wind Speed 4 mph (NE)    
Max Wind Speed 12 mph    
Max Gust Speed 17 mph    
Visibility 10 miles    
Events      
T = Trace of Precipitation, MM = Missing Value Source: NWS Daily Summary

Daily Weather History Graph

Daily Weather History Graph

Search for Another Location

Airport or City:

Trip Planner

Search our weather history database for the weather conditions in past years. The results will help you decide how hot, cold, wet, or windy it might be!

Date:

Astronomy

May. 12, 2013 Rise Set
Actual Time 5:51 AM AST 6:49 PM AST
Civil Twilight 5:28 AM AST 7:12 PM AST
Nautical Twilight 5:00 AM AST 7:40 PM AST
Astronomical Twilight 4:32 AM AST 8:08 PM AST
Moon 7:48 AM AST (5/12) 9:09 PM AST (5/12)
Length of Visible Light 13h 44m
Length of Day
12h 58m
Waxing Crescent, 6% of the Moon is Illuminated
May 12
Waxing Crescent
May 18
First Quarter
May 25
Full
May 31
Last Quarter
Jun 8
New

Hourly Weather History & Observations

Time (AST) Temp. Heat Index Dew Point Humidity Pressure Visibility Wind Dir Wind Speed Gust Speed Precip Events Conditions
12:56 AM 77.0 °F - 73.0 °F 88% 29.97 in 10.0 mi Calm Calm - N/A   Scattered Clouds
1:56 AM 78.1 °F - 72.0 °F 81% 29.95 in 10.0 mi Calm Calm - N/A   Scattered Clouds
2:56 AM 77.0 °F - 72.0 °F 84% 29.95 in 10.0 mi Calm Calm - N/A   Scattered Clouds
3:56 AM 77.0 °F - 72.0 °F 84% 29.94 in 10.0 mi Calm Calm - N/A   Partly Cloudy
4:56 AM 75.9 °F - 72.0 °F 87% 29.94 in 10.0 mi Calm Calm - N/A   Scattered Clouds
5:56 AM 77.0 °F - 72.0 °F 84% 29.95 in 10.0 mi Calm Calm - N/A   Scattered Clouds
6:56 AM 78.1 °F - 72.0 °F 81% 29.98 in 10.0 mi Calm Calm - N/A   Partly Cloudy
7:56 AM 81.0 °F 85.8 °F 73.0 °F 77% 29.99 in 10.0 mi Calm Calm - N/A   Partly Cloudy
8:56 AM 82.0 °F 86.7 °F 72.0 °F 71% 30.00 in 10.0 mi North 4.6 mph - N/A   Partly Cloudy
9:56 AM 82.9 °F 88.8 °F 73.0 °F 72% 30.01 in 10.0 mi North 5.8 mph - N/A   Scattered Clouds
10:56 AM 82.0 °F 86.7 °F 72.0 °F 71% 30.00 in 10.0 mi North 8.1 mph - N/A   Scattered Clouds
11:56 AM 84.9 °F 91.4 °F 73.0 °F 67% 30.00 in 10.0 mi Variable 6.9 mph - N/A   Scattered Clouds
12:56 PM 86.0 °F 93.0 °F 73.0 °F 65% 29.97 in 10.0 mi NE 9.2 mph - N/A   Partly Cloudy
1:56 PM 84.9 °F 90.7 °F 72.0 °F 65% 29.96 in 10.0 mi NNE 11.5 mph - N/A   Scattered Clouds
2:56 PM 84.0 °F 89.6 °F 72.0 °F 67% 29.96 in 10.0 mi NE 5.8 mph - N/A   Mostly Cloudy
3:56 PM 82.9 °F 88.0 °F 72.0 °F 69% 29.95 in 10.0 mi Variable 6.9 mph - N/A   Overcast
4:56 PM 82.0 °F 86.3 °F 71.1 °F 69% 29.94 in 10.0 mi East 10.4 mph - N/A   Overcast
5:56 PM 81.0 °F 85.8 °F 73.0 °F 77% 29.95 in 10.0 mi SE 3.5 mph - 0.00 in   Overcast
6:56 PM 80.1 °F 83.8 °F 72.0 °F 76% 29.96 in 10.0 mi East 3.5 mph - N/A   Mostly Cloudy
7:56 PM 80.1 °F 84.2 °F 73.0 °F 79% 29.98 in 10.0 mi WSW 3.5 mph - N/A   Scattered Clouds
8:56 PM 80.1 °F 84.2 °F 73.0 °F 79% 29.99 in 10.0 mi Calm Calm - N/A   Partly Cloudy
9:56 PM 80.1 °F 84.2 °F 73.0 °F 79% 30.01 in 10.0 mi SSW 3.5 mph - N/A   Partly Cloudy
10:56 PM 79.0 °F - 73.0 °F 82% 30.02 in 10.0 mi WSW 3.5 mph - N/A   Partly Cloudy
11:56 PM 79.0 °F - 73.0 °F 82% 30.01 in 10.0 mi Calm Calm - N/A   Scattered Clouds